Location: Hamingen
(52.6723°N, 6.1428°E)
Time: 08:20:36
(UTC+00:00)

Daily predictions for brighter satellites

Satellite Brightness Start Highest point End
(mag) Time Altitude Azimuth Time Altitude Azimuth Time Altitude Azimuth
In-Cosmos 22 Rocket 4.3 17:02:05 10° S 17:07:29 60° E 17:13:02 10° NNE
Cosmos 841 Rocket 3.7 17:02:55 10° SSW 17:08:06 79° WNW 17:13:17 10° NNE
ATLAS 3B R/B 4.2 17:01:22 10° NW 17:08:46 47° WSW 17:15:47 10° S
Cosmos 2084 Rocket 4.5 17:06:17 10° W 17:10:10 37° NNW 17:14:05 10° NE
SAR-Lupe-4 3.9 17:07:15 10° SE 17:10:40 44° ENE 17:14:06 10° N
Cosmos 1125 Rocket 4.1 17:06:49 10° NNW 17:11:36 35° NE 17:16:21 10° ESE
Cosmos 1000 Rocket 4.5 17:08:17 10° S 17:14:26 76° E 17:20:40 10° NNE
IRS-1C 4.2 17:09:08 10° SSE 17:14:28 90° SSE 17:19:50 10° NNW
Landsat 7 4.5 17:11:04 10° S 17:15:40 61° W 17:20:18 10° NNW
Okean 2 Rocket 3.6 17:17:26 10° N 17:21:33 36° ENE 17:25:37 10° SE
YAOGAN 1 2.8 17:17:45 10° SE 17:21:50 46° ENE 17:25:56 10° N
Cosmos 2123 Rocket 4.1 17:16:25 10° S 17:22:38 64° E 17:28:52 10° NNE
NOAA 6 4.5 17:20:11 10° SE 17:24:56 39° ENE 17:29:43 10° N
Okean 1 Rocket 3.7 17:20:58 10° N 17:25:02 34° ENE 17:29:03 10° SE
Spot 4 Rocket 4.2 17:22:14 10° SE 17:27:08 48° ENE 17:32:03 10° N
COSMOS 2428 2.7 17:21:23 10° NNW 17:27:08 72° NE 17:32:51 10° SE
Cosmos 1980 4.1 17:25:21 10° NNW 17:30:46 43° NE 17:36:08 10° ESE
Sich 1 Rocket 4.1 17:26:51 10° N 17:31:06 38° ENE 17:35:22 10° SE
ARIANE 5 R/B 3.1 17:28:40 10° S 17:33:44 63° WSW 17:38:47 10° NNW
Cosmos 2237 Rocket 2.6 17:30:58 10° NNW 17:36:24 44° NE 17:41:48 10° ESE
Aureole 3 Rocket 3.6 17:32:24 10° N 17:36:31 31° ENE 17:39:45 10° SE
Cosmos 158 Rocket 4.1 17:33:06 10° S 17:37:44 48° ESE 17:42:25 10° NE
ATLAS 5 CENTAUR R/B 2.7 17:33:59 10° NW 17:38:00 48° SW 17:42:58 10° SSE
Cosmos 192 4.3 17:33:19 10° NNW 17:38:13 75° ENE 17:43:06 10° SSE
SeaSat 1 3.4 17:35:59 10° SSE 17:40:45 52° WSW 17:45:34 10° NW
Cosmos 1378 Rocket 3.5 17:36:47 10° S 17:41:03 63° E 17:45:18 10° NNE
ARIANE 6 FM1 Upper Stage 4.1 17:38:25 10° NW 17:41:39 23° N 17:44:13 13° ENE
Resurs 01 Rocket 2.1 17:38:08 10° SE 17:42:12 38° ENE 17:46:17 10° N
SKYMED 2 3.6 17:37:55 10° NNE 17:42:15 59° E 17:46:32 10° S
GP-B 3.1 17:40:40 10° S 17:45:02 87° W 17:49:27 10° N
Cosmos 2219 Rocket 3.9 17:40:55 10° NW 17:46:00 37° WSW 17:51:03 10° S
COSMO-SKYMED 1 2.9 17:42:37 10° NNE 17:46:31 39° E 17:50:22 10° SSE
Cosmos 2228 4.3 17:44:38 10° NNE 17:47:39 19° ENE 17:49:16 16° E
Cosmos 2292 Rocket 2.8 17:47:35 10° SSW 17:50:27 71° WNW 17:53:32 10° N
Cosmos 2322 4.0 17:45:39 10° NNW 17:51:22 75° WSW 17:57:04 10° SSE
PSLV R/B 3.4 17:47:56 10° SSE 17:51:59 59° ENE 17:56:02 10° N
NOSS 3-3 (A) 4.2 17:47:39 10° S 17:52:29 40° ESE 17:57:36 13° NE
Cosmos 2016 Rocket 4.2 17:47:13 10° NNW 17:53:26 78° W 17:59:43 10° S
USA 306 2.6 17:50:43 10° WNW 17:53:35 41° SSW 17:55:02 16° SE
Resurs 1-3 3.6 17:51:24 10° SSE 17:55:43 83° WSW 18:00:02 10° NNW
Cosmos 2285 Rocket 4.0 17:51:50 10° NNW 17:58:17 68° ENE 18:04:40 10° SE
Cosmos 1025 Rocket 3.1 17:55:10 10° S 17:59:22 55° E 18:03:37 10° NNE
Cosmos 2242 Rocket 4.0 17:55:14 10° SSW 17:59:35 64° WNW 18:03:57 10° N
SL-16 R/B 3.3 17:54:52 10° NNW 17:59:38 27° NE 18:02:26 18° E
SJ-7 4.0 17:56:03 10° SSE 17:59:44 79° ENE 18:03:26 10° NNW
Cosmos 2227 Rocket 3.9 18:02:03 10° SE 18:03:35 14° ESE 18:03:35 14° ESE
NOSS 3-4 (A) 3.8 18:02:12 10° NW 18:08:35 66° NE 18:15:10 14° ESE
NOSS 3-4 (C) 3.8 18:02:27 10° NW 18:08:52 65° NE 18:15:23 14° ESE
SJ-6B 2.8 18:05:39 10° SE 18:08:55 41° ENE 18:12:11 10° N
Cosmos 2233 Rocket 4.2 18:03:08 10° NNW 18:09:24 79° W 18:15:42 10° S
SPOT 5 3.7 18:08:21 19° ESE 18:10:57 30° ENE 18:15:20 10° N
CZ-2D R/B 3.8 18:09:44 10° S 18:13:36 64° WSW 18:17:35 10° NNW
Cosmos 1315 Rocket 4.0 18:11:52 10° NNW 18:15:28 42° W 18:19:04 10° SSW
Cosmos 1674 Rocket 3.6 18:11:10 10° SSW 18:15:34 85° WNW 18:20:00 10° N
Meteor 1-11 4.3 18:13:23 10° SSW 18:19:01 81° WNW 18:24:47 10° NNE
SL-16 R/B 4.4 18:18:02 10° N 18:23:07 28° NW 18:28:13 10° WSW
Cosmos 1867 3.7 18:17:56 10° SW 18:23:23 78° NW 18:27:56 15° NE
Cosmos 2061 Rocket 4.3 18:18:12 10° NNW 18:24:35 71° W 18:30:52 10° S
ATLAS 2AS CENTAUR R/B 3.7 18:19:24 10° W 18:25:52 40° NNW 18:31:15 14° NE
Cosmos 724 4.4 18:19:55 10° SW 18:26:07 88° NW 18:31:22 14° NE
CZ-4 R/B 2.6 18:28:09 22° NNE 18:28:09 22° NNE 18:30:09 10° N
Lacrosse 5 rocket 0.9 18:23:37 10° WSW 18:27:07 76° NNW 18:28:21 38° NE
CZ-4B R/B 4.0 18:26:45 26° ENE 18:27:26 27° ENE 18:31:49 10° N
Meteor 1-31 Rocket 3.3 18:32:59 33° NE 18:32:59 33° NE 18:35:28 10° N
ADEOS 4.4 18:32:00 28° ENE 18:32:28 29° ENE 18:36:54 10° N
CZ-4C R/B 1.7 18:28:30 10° SW 18:32:51 77° SE 18:36:09 24° NE
RESURS DK-1 4.5 18:32:00 10° N 18:33:27 13° NNE 18:33:27 13° NNE
IRAS Rocket 4.2 18:30:01 10° SSE 18:35:38 89° ENE 18:41:19 10° NNW
CARTOSAT-1 4.1 18:31:35 10° S 18:35:43 57° W 18:39:54 10° NNW
CRYOSAT 2 4.2 18:31:49 10° N 18:36:44 72° E 18:41:36 10° S
USA 290 3.7 18:37:47 10° SW 18:40:47 36° WNW 18:43:01 15° N
Cosmos 1464 Rocket 4.0 18:38:42 10° N 18:45:04 66° ENE 18:51:21 10° SSE
USA 267 3.4 18:41:48 26° ENE 18:45:44 68° NNW 18:52:13 10° W
CSL-04 Debris 4.2 18:44:38 25° SE 18:47:43 57° ENE 18:53:03 10° N
ERS-1 Rocket 3.8 18:48:49 31° NE 18:48:49 31° NE 18:52:41 10° N
Cosmos 2297 Rocket 2.1 18:43:44 10° SSW 18:49:18 63° ESE 18:52:37 25° NE
Cosmos 1607 4.0 18:43:36 10° SW 18:49:45 79° NW 18:54:10 21° NE
Cosmos 1570 Rocket 4.0 18:45:11 10° S 18:50:21 57° ESE 18:52:48 30° NE
CSL-04 Rocket 3.5 18:47:26 24° SE 18:50:38 63° ENE 18:55:52 10° N
Cosmos 1455 Rocket 3.1 18:46:27 10° NNW 18:50:46 74° W 18:55:02 10° S
Cosmos 1943 4.3 18:46:22 10° NNW 18:51:09 26° NE 18:51:36 26° NE
Cosmos 2344 4.2 18:45:14 10° S 18:51:12 28° ESE 18:51:12 28° ESE
DNEPR-1 R/B 3.8 18:47:49 10° NW 18:52:31 74° NE 18:54:13 43° ESE
Cosmos 2221 Rocket 4.3 18:53:49 10° SSW 18:58:11 54° WNW 19:02:38 10° N
PAYLOAD B 4.2 19:05:27 49° ESE 19:06:37 59° ENE 19:12:09 10° N
Cosmos 2208 Rocket 4.0 19:02:25 10° S 19:07:29 57° ESE 19:07:29 57° ESE
Terra 3.0 19:11:53 29° NNE 19:11:53 29° NNE 19:14:32 10° N
NOSS 3-3 (C) 3.8 19:08:37 10° SW 19:14:01 83° NW 19:16:44 36° NE
CZ-4B R/B 4.0 19:14:51 65° SW 19:15:10 69° WSW 19:19:07 10° NNW
Meteor 2-17 Rocket 4.3 19:10:16 10° S 19:16:21 90° WNW 19:22:27 10° N
Resurs 01 Rocket 3.5 19:14:43 10° SSW 19:18:37 31° W 19:22:34 10° NNW
Cosmos 2237 Rocket 3.2 19:15:07 10° NW 19:20:29 44° WSW 19:25:51 10° S
ARIANE 6 FM1 Upper Stage 3.6 19:17:29 10° NW 19:20:14 38° NNW 19:20:14 38° NNW
COSMO-SKYMED 1 4.5 19:18:09 10° N 19:21:39 27° WNW 19:25:08 10° WSW
Cosmos 44 Rocket 4.5 19:18:38 10° SSW 19:21:21 31° S 19:21:21 31° S
Cosmos 773 Rocket 3.8 19:19:35 10° SSW 19:24:51 81° ESE 19:25:06 78° ENE
Cosmos 2228 3.4 19:20:53 10° NNW 19:24:59 57° W 19:25:37 51° SW
Orbus 7S? 4.4 19:20:23 10° WNW 19:28:12 52° SW 19:28:58 47° SSW
Cosmos 2150 Rocket 4.4 19:27:19 10° NNW 19:32:24 58° WSW 19:33:58 40° SSW
Cosmos 2298 Rocket 4.4 19:27:56 10° NNW 19:33:09 61° WSW 19:34:42 42° SSW
NOSS 3-3 (A) 4.3 19:37:42 10° WSW 19:43:06 58° NNW 19:45:02 41° NNE
SL-16 R/B 2.1 19:38:44 10° NNW 19:44:19 85° W 19:44:19 85° W
Cosmos 2227 Rocket 3.3 19:42:35 10° SSW 19:45:30 32° SSW 19:45:30 32° SSW
SPOT 5 3.7 19:47:23 38° SW 19:48:40 48° W 19:53:34 10° NNW
MOS 1 4.2 19:49:13 84° WSW 19:49:13 84° WSW 19:54:57 10° NNW
Okean O Rocket 4.0 20:02:07 15° N 20:02:07 15° N 20:02:53 10° N
Cosmos 2034 Rocket 4.4 19:54:34 10° NNW 20:00:38 59° W 20:02:53 38° SSW
CZ-4 R/B 3.8 20:03:09 18° NW 20:03:09 18° NW 20:04:21 10° NNW
Lacrosse 5 rocket 3.9 20:00:53 10° WNW 20:01:48 16° WNW 20:01:48 16° WNW
CZ-4B R/B 3.7 20:08:36 54° NW 20:08:36 54° NW 20:12:57 10° NNW
BREEZE-M DEB (TANK) 4.2 19:56:41 10° WSW 20:10:45 52° SSW 20:10:45 52° SSW
Cosmos 1634 Rocket 4.2 20:04:38 10° NNW 20:10:08 68° NNW 20:10:08 68° NNW
ADEOS 4.4 20:12:43 47° WNW 20:12:43 47° WNW 20:16:49 10° NNW
ATLAS 2AS CENTAUR R/B 3.7 20:12:15 10° WNW 20:18:24 34° N 20:18:40 34° NNE
CZ-4C R/B 3.3 20:17:03 10° W 20:21:07 36° NNW 20:21:07 36° NNW
USA 267 3.5 20:29:08 61° NNW 20:29:08 61° NNW 20:34:56 10° WNW
Cosmos 2297 Rocket 3.6 20:28:36 10° WSW 20:33:43 34° NW 20:34:29 32° NNW
Terra 4.3 20:50:29 18° NW 20:50:29 18° NW 20:52:00 10° NNW
